Cumberland, WV

11:05 AM EDT on July 23, 2017 (GMT -0400)
Greater Cumberland Regional

Weather History for KCBE - November, 2012

Change the Weather History Date:

Wednesday, November 21, 2012

  Actual Average (KMRB) Record (KMRB)
Temperature  
Mean Temperature 42 °F -  
Max Temperature 57 °F 49 °F 76 °F (1931)
Min Temperature 26 °F 33 °F 12 °F (1951)
Degree Days  
Heating Degree Days 24    
Moisture  
Dew Point 33 °F    
Average Humidity 82    
Maximum Humidity 100    
Minimum Humidity 41    
Precipitation  
Precipitation 0.00 in - - ()
Sea Level Pressure  
Sea Level Pressure 30.23 in    
Wind  
Wind Speed 0 mph (SSW)    
Max Wind Speed 5 mph    
Max Gust Speed -    
Visibility 6 miles    
Events      
Averages and records for this station are not official NWS values.
T = Trace of Precipitation, MM = Missing Value Source: NWS Daily Summary

Daily Weather History Graph

Daily Weather History Graph

Search for Another Location

Airport or City:

Trip Planner

Search our weather history database for the weather conditions in past years. The results will help you decide how hot, cold, wet, or windy it might be!

Date:

Astronomy

Nov. 21, 2012 Rise Set
Actual Time 7:06 AM EST 4:55 PM EST
Civil Twilight 6:37 AM EST 5:24 PM EST
Nautical Twilight 6:04 AM EST 5:57 PM EST
Astronomical Twilight 5:32 AM EST 6:29 PM EST
Moon 1:09 PM EST (11/21) 12:25 AM EST (11/21)
Length of Visible Light 10h 47m
Length of Day
9h 48m
First Quarter, 61% of the Moon is Illuminated
Nov 21
First Quarter
Nov 28
Full
Dec 6
Last Quarter
Dec 13
New
Dec 20
First Quarter

Hourly Weather History & Observations

Time (EST) Temp. Windchill Dew Point Humidity Pressure Visibility Wind Dir Wind Speed Gust Speed Precip Events Conditions
12:04 AM 33.8 °F - 33.8 °F 100% 30.19 in 7.0 mi Calm Calm - N/A   Clear
12:26 AM 33.8 °F - 33.8 °F 100% 30.18 in 7.0 mi Calm Calm - N/A   Clear
12:47 AM 33.8 °F - 33.8 °F 100% 30.18 in 5.0 mi Calm Calm - N/A   Clear
1:08 AM 32.0 °F - 32.0 °F 100% 30.18 in 1.0 mi Calm Calm - N/A   Unknown
1:30 AM 32.0 °F - 32.0 °F 100% 30.18 in 0.8 mi Calm Calm - N/A   Mostly Cloudy
1:51 AM 32.0 °F - 32.0 °F 100% 30.18 in 2.5 mi Calm Calm - N/A   Unknown
2:12 AM 32.0 °F - 32.0 °F 100% 30.18 in 5.0 mi Calm Calm - N/A   Clear
2:34 AM 32.0 °F - 32.0 °F 100% 30.19 in 5.0 mi Calm Calm - N/A   Clear
2:55 AM 30.2 °F - 30.2 °F 100% 30.20 in 0.2 mi Calm Calm - N/A   Mostly Cloudy
3:16 AM 30.2 °F - 30.2 °F 100% 30.20 in 0.2 mi Calm Calm - N/A   Mostly Cloudy
3:38 AM 30.2 °F - 30.2 °F 100% 30.20 in 4.0 mi Calm Calm - N/A   Scattered Clouds
3:59 AM 30.2 °F - 30.2 °F 100% 30.20 in 0.2 mi Calm Calm - N/A   Overcast
4:20 AM 30.2 °F - 30.2 °F 100% 30.21 in 0.5 mi Calm Calm - N/A   Overcast
4:41 AM 30.2 °F - 30.2 °F 100% 30.21 in 3.0 mi Calm Calm - N/A   Unknown
5:03 AM 30.2 °F - 30.2 °F 100% 30.22 in 4.0 mi Calm Calm - N/A   Scattered Clouds
5:24 AM 30.2 °F - 30.2 °F 100% 30.22 in 4.0 mi Calm Calm - N/A   Clear
5:45 AM 30.2 °F - 30.2 °F 100% 30.22 in 3.0 mi Calm Calm - N/A   Unknown
6:07 AM 26.6 °F - 26.6 °F 100% 30.23 in 0.2 mi Calm Calm - N/A   Overcast
6:28 AM 26.6 °F - 26.6 °F 100% 30.24 in 0.5 mi Calm Calm - N/A   Overcast
6:49 AM 26.6 °F - 26.6 °F 100% 30.24 in 0.2 mi Calm Calm - N/A   Overcast
7:10 AM 28.4 °F - 28.4 °F 100% 30.25 in 0.2 mi Calm Calm - N/A   Overcast
7:32 AM 28.4 °F - 28.4 °F 100% 30.25 in 0.2 mi Calm Calm - N/A   Overcast
7:53 AM 28.4 °F - 28.4 °F 100% 30.26 in 0.2 mi Calm Calm - N/A   Overcast
8:14 AM 30.2 °F - 30.2 °F 100% 30.27 in 0.2 mi Calm Calm - N/A   Overcast
8:35 AM 30.2 °F - 30.2 °F 100% 30.27 in 0.2 mi Calm Calm - N/A   Overcast
8:57 AM 30.2 °F - 30.2 °F 100% 30.27 in 0.2 mi Calm Calm - N/A   Overcast
9:18 AM 32.0 °F - 32.0 °F 100% 30.28 in 0.2 mi Calm Calm - N/A   Overcast
9:39 AM 32.0 °F - 32.0 °F 100% 30.28 in 0.2 mi Calm Calm - N/A   Overcast
10:00 AM 32.0 °F - 32.0 °F 100% 30.28 in 0.5 mi Calm Calm - N/A   Overcast
10:22 AM 35.6 °F - 35.6 °F 100% 30.27 in 3.0 mi Calm Calm - N/A   Overcast
10:43 AM 37.4 °F - 37.4 °F 100% 30.27 in 5.0 mi Calm Calm - N/A   Clear
11:04 AM 41.0 °F - 41.0 °F 100% 30.27 in 7.0 mi Calm Calm - N/A   Clear
11:25 AM 42.8 °F 41.1 °F 37.4 °F 81% 30.26 in 7.0 mi South 3.5 mph - N/A   Clear
11:47 AM 44.6 °F - 37.4 °F 76% 30.25 in 10.0 mi Calm Calm - N/A   Clear
12:08 PM 46.4 °F - 37.4 °F 71% 30.24 in 10.0 mi Calm Calm - N/A   Clear
12:29 PM 50.0 °F - 37.4 °F 62% 30.24 in 10.0 mi South 4.6 mph - N/A   Clear
12:50 PM 51.8 °F - 37.4 °F 58% 30.23 in 10.0 mi SSW 3.5 mph - N/A   Clear
1:11 PM 53.6 °F - 37.4 °F 54% 30.22 in 10.0 mi Calm Calm - N/A   Clear
1:33 PM 53.6 °F - 35.6 °F 51% 30.22 in 10.0 mi SW 3.5 mph - N/A   Clear
1:54 PM 55.4 °F - 35.6 °F 47% 30.22 in 10.0 mi Calm Calm - N/A   Clear
2:15 PM 55.4 °F - 35.6 °F 47% 30.21 in 10.0 mi Calm Calm - N/A   Clear
2:36 PM 55.4 °F - 35.6 °F 47% 30.20 in 10.0 mi Calm Calm - N/A   Clear
2:57 PM 57.2 °F - 33.8 °F 41% 30.20 in 10.0 mi Calm Calm - N/A   Clear
3:19 PM 55.4 °F - 33.8 °F 44% 30.20 in 10.0 mi Calm Calm - N/A   Clear
3:40 PM 55.4 °F - 33.8 °F 44% 30.20 in 10.0 mi Calm Calm - N/A   Clear
4:01 PM 55.4 °F - 33.8 °F 44% 30.20 in 10.0 mi Calm Calm - N/A   Clear
4:22 PM 55.4 °F - 33.8 °F 44% 30.21 in 10.0 mi Calm Calm - N/A   Clear
4:44 PM 51.8 °F - 32.0 °F 47% 30.22 in 10.0 mi Calm Calm - N/A   Clear
5:05 PM 51.8 °F - 32.0 °F 47% 30.22 in 10.0 mi Calm Calm - N/A   Clear
5:26 PM 50.0 °F - 32.0 °F 50% 30.23 in 10.0 mi Calm Calm - N/A   Clear
5:47 PM 50.0 °F - 33.8 °F 54% 30.23 in 10.0 mi Calm Calm - N/A   Clear
6:09 PM 46.4 °F - 33.8 °F 62% 30.24 in 10.0 mi Calm Calm - N/A   Clear
6:30 PM 44.6 °F 42.2 °F 33.8 °F 66% 30.24 in 10.0 mi NW 4.6 mph - N/A   Clear
6:51 PM 44.6 °F - 33.8 °F 66% 30.25 in 10.0 mi Calm Calm - N/A   Clear
7:12 PM 42.8 °F - 33.8 °F 70% 30.25 in 10.0 mi Calm Calm - N/A   Clear
7:34 PM 41.0 °F - 33.8 °F 76% 30.26 in 10.0 mi Calm Calm - N/A   Clear
7:55 PM 41.0 °F - 32.0 °F 70% 30.26 in 10.0 mi Calm Calm - N/A   Clear
8:16 PM 39.2 °F - 33.8 °F 81% 30.26 in 10.0 mi Calm Calm - N/A   Clear
8:37 PM 39.2 °F - 33.8 °F 81% 30.26 in 10.0 mi Calm Calm - N/A   Clear
8:59 PM 37.4 °F 34.9 °F 32.0 °F 81% 30.27 in 10.0 mi East 3.5 mph - N/A   Clear
9:20 PM 35.6 °F - 32.0 °F 87% 30.27 in 10.0 mi Calm Calm - N/A   Clear
9:41 PM 37.4 °F 34.9 °F 32.0 °F 81% 30.27 in 10.0 mi North 3.5 mph - N/A   Clear
10:02 PM 35.6 °F - 32.0 °F 87% 30.27 in 10.0 mi Calm Calm - N/A   Clear
10:24 PM 35.6 °F - 32.0 °F 87% 30.27 in 10.0 mi Calm Calm - N/A   Clear
10:45 PM 35.6 °F - 32.0 °F 87% 30.27 in 10.0 mi Calm Calm - N/A   Clear
11:06 PM 33.8 °F - 32.0 °F 93% 30.27 in 10.0 mi Calm Calm - N/A   Clear
11:28 PM 32.0 °F - 32.0 °F 100% 30.27 in 10.0 mi Calm Calm - N/A   Clear
11:49 PM 32.0 °F - 32.0 °F 100% 30.28 in 10.0 mi Calm Calm - N/A   Clear